STARLINK-36273, 68166

Orbit data source: Space-Track

STARLINK-36273, 68166 is a payload satellite owned by SpaceX/Seattle (US) in SSO that was launched on Fri, 13 Mar 2026 UTC via an FALCON 9 launch vehicle from the Air Force Western Test Range (AFWTR). Payload-class satellites include a variety of spacecraft equipped with specific instruments for various scientific and technological missions. These include communications satellites like Starlink; space stations such as the ISS; scientific satellites like the Hubble; Earth observation satellites from companies like Planet Labs, Umbra, and HawkEye 360; GPS; miniature CubeSats for education and research; and military/defense satellites.

Loading next visibility...
Identifier
68166, 2026-049AA
Orbit
SSO
Country
Flag of USUS
Related business
Manufacturer
SpaceX/Seattle
Mission
Operational spacecraft
Bus & Motor
STARLINK V2MO, Unknown motor
Mass
575 kg wet, ~530 kg dry
Launch date (UTC)
2026-03-13 (3 months ago)
Launch vehicle
FALCON 9
Launch site
Air Force Western Test Range (AFWTR)
Object type
Payload
Rocket body
Debris
Shape & HBR
Unknown shape, 17.7 m
Radar Cross Section
Large (>1 m²)

Expand to show TLE details & history
Last TLE update: 13 hours ago

TLE from 13 hours ago
0 STARLINK-36273
1 68166U 26049AA  26171.34271139  .00021666  00000-0  67120-3 0  9995
2 68166  97.2827 193.4618 0001653 101.3072 258.8357 15.33459265 15439
Epoch: 2026-06-20T08:13Z
TLE epoch observation values (Epoch: 2026-06-20T08:13:30.264Z)
Latitude
0.00005°
Longitude
161.52699°
Altitude
468.832 km
Speed
7.632 km/s
True Right ascension
12h 53m 50s
True Declination
0° 00' 00"
Sunlit
Object was in daylight at epoch
Visualization orbit readout
Latitude
Unknown
Longitude
Unknown
Altitude
Unknown
Speed
Unknown
Apparent Right ascension
Unknown
Apparent Declination
Unknown
Sunlit
N/A
Visualization observer readout
Local Sidereal Time
08:33:00
Azimuth
Unknown
Elevation
Unknown
Doppler factor
Unknown
Orbital elements
Apogee altitude
463.574 km
Perigee altitude
461.313 km
Semi-major axis
6,840.58 km
Eccentricity
0.00017
Inclination
97.2827°
RAAN
193.4618°
Arg. of periapsis
101.3072°
True anomaly
258.81712°
Mean anomaly
258.8357°
Eccentric anomaly
258.82641°
Mean motion
3.83622 °/min
Orbital period
93.84 mins
BSTAR
0.0006712
Loading maneuver chart data...
Computing Atmospheric mass density...
Loading historical data...
Loading historical data...
Loading historical data...
Loading historical data...
Loading historical data...
Loading historical data...
Loading historical data...

Documentation

Showing up to 5 results
|